This is the latest recevied weather packets stored in our database for station/object N5PRN. If no packets are shown the sender has not sent any weather packets the latest 10 day(s).
| Time | Temp. | Humidity | Pressure | Rain* | Wind** | Luminosity | Snow |
|---|---|---|---|---|---|---|---|
| 1777221509 | 26.11° C | 80% | 1012 hPa | 0 mm | - | 654 W/m² | - |
| 1777221206 | 25.56° C | 80% | 1012.2 hPa | 0 mm | - | 514 W/m² | - |
| 1777220903 | 26.11° C | 78% | 1012.4 hPa | 0 mm | - | 391 W/m² | - |
| 1777220599 | 26.11° C | 79% | 1012.3 hPa | 0 mm | - | 443 W/m² | - |
| 1777220295 | 26.11° C | 79% | 1012.2 hPa | 0 mm | - | 520 W/m² | - |
| 1777219989 | 25.56° C | 79% | 1012.5 hPa | 0 mm | - | 626 W/m² | - |
| 1777219687 | 25.56° C | 77% | 1012 hPa | 0 mm | - | 746 W/m² | - |
| 1777219384 | 26.11° C | 75% | 1012.2 hPa | 0 mm | - | 828 W/m² | - |
| 1777219080 | 25.56° C | 77% | 1012.2 hPa | 0 mm | - | 811 W/m² | - |
| 1777218776 | 25° C | 77% | 1012.3 hPa | 0 mm | - | 774 W/m² | - |
| 1777218471 | 25° C | 78% | 1012.1 hPa | 0 mm | - | 808 W/m² | - |
| 1777218167 | 24.44° C | 79% | 1012.1 hPa | 0 mm | - | 796 W/m² | - |
| 1777217864 | 23.89° C | 81% | 1012.2 hPa | 0 mm | - | 765 W/m² | - |
| 1777217558 | 23.89° C | 81% | 1012.1 hPa | 0 mm | - | 544 W/m² | - |
| 1777217256 | 23.89° C | 81% | 1012.3 hPa | 0 mm | - | 294 W/m² | - |
| 1777216953 | 23.89° C | 82% | 1012.2 hPa | 0 mm | - | 373 W/m² | - |
| 1777216649 | 23.89° C | 82% | 1012.3 hPa | 0 mm | - | 596 W/m² | - |
| 1777216345 | 23.33° C | 82% | 1012.1 hPa | 0 mm | - | 432 W/m² | - |
| 1777216044 | 23.33° C | 83% | 1012.3 hPa | 0 mm | - | 406 W/m² | - |
| 1777215739 | 22.78° C | 84% | 1012.2 hPa | 0 mm | - | 439 W/m² | - |
| 1777215436 | 22.78° C | 84% | 1011.9 hPa | 0 mm | - | 689 W/m² | - |
| 1777215132 | 22.78° C | 86% | 1011.7 hPa | 0 mm | - | 565 W/m² | - |
| 1777214827 | 22.22° C | 87% | 1011.7 hPa | 0 mm | - | 551 W/m² | - |
| 1777214526 | 22.22° C | 87% | 1011.8 hPa | 0 mm | - | 316 W/m² | - |
| 1777214221 | 21.67° C | 88% | 1011.8 hPa | 0 mm | - | 236 W/m² | - |
* Rain latest hour (hover to see other rain measurements)
** Current wind speed in m/s (hover to see current wind gust speed)